FW4479 Weather Reports


time (UTC)temp
C
wind
direction
speed
KPH
gust
KPH
rain 1hr
cm
rain 24hr
cm
rain mn
cm
humidity
%
barometer
mb
20260906213015 21 276 0.0 1.6 0.00 0.00 0.00 53 1019.2
20260906212515 21 78 0.0 1.6 0.00 0.00 0.00 53 1019.2
20260906212014 21 80 0.0 3.2 0.00 0.00 0.00 53 1019.1
20260906211513 21 71 0.0 3.2 0.00 0.00 0.00 53 1019.1
20260906211013 21 58 0.0 1.6 0.00 0.00 0.00 53 1019.1
20260906210515 21 59 0.0 9.7 0.00 0.00 0.00 52 1019.0
20260906210012 21 59 0.0 9.7 0.00 0.00 0.00 52 1019.0
20260906205513 21 263 0.0 8.0 0.00 0.00 0.00 52 1018.9
20260906205012 21 349 0.0 3.2 0.00 0.00 0.00 52 1018.9
20260906204511 21 336 0.0 1.6 0.00 0.00 0.00 53 1018.9
20260906204011 21 336 0.0 4.8 0.00 0.00 0.00 51 1018.8
20260906203514 21 332 0.0 4.8 0.00 0.00 0.00 52 1018.7
20260906203012 21 349 0.0 3.2 0.00 0.00 0.00 52 1018.7
20260906202514 21 340 0.0 3.2 0.00 0.00 0.00 52 1018.6
20260906202011 22 60 0.0 4.8 0.00 0.00 0.00 50 1018.7
20260906201513 22 15 0.0 4.8 0.00 0.00 0.00 49 1018.7
20260906201012 22 72 0.0 3.2 0.00 0.00 0.00 51 1018.6
20260906200510 21 53 0.0 3.2 0.00 0.00 0.00 50 1018.7
20260906200010 21 98 1.6 4.8 0.00 0.00 0.00 49 1018.8
20260906195513 22 1 0.0 4.8 0.00 0.00 0.00 50 1018.7
20260906195009 22 56 0.0 4.8 0.00 0.00 0.00 52 1018.7
20260906194509 21 32 0.0 1.6 0.00 0.00 0.00 51 1018.7
20260906194008 21 62 0.0 3.2 0.00 0.00 0.00 53 1018.8
20260906193509 21 41 0.0 8.0 0.00 0.00 0.00 52 1018.7
20260906193008 22 41 0.0 8.0 0.00 0.00 0.00 54 1018.7
20260906192508 22 11 1.6 4.8 0.00 0.00 0.00 52 1018.6
20260906192008 22 69 0.0 4.8 0.00 0.00 0.00 50 1018.6
20260906191508 22 69 0.0 9.7 0.00 0.00 0.00 51 1018.5
20260906191007 21 64 0.0 9.7 0.00 0.00 0.00 52 1018.6
20260906190507 22 68 1.6 8.0 0.00 0.00 0.00 48 1018.5
20260906190007 22 52 1.6 4.8 0.00 0.00 0.00 51 1018.5
20260906185507 23 328 0.0 1.6 0.00 0.00 0.00 51 1018.6
20260906185006 22 237 0.0 1.6 0.00 0.00 0.00 51 1018.6
20260906184505 22 23 0.0 3.2 0.00 0.00 0.00 52 1018.6
20260906184007 22 37 0.0 3.2 0.00 0.00 0.00 49 1018.6
20260906183506 21 40 0.0 4.8 0.00 0.00 0.00 56 1018.7
20260906183012 21 40 0.0 4.8 0.00 0.00 0.00 50 1018.7
20260906182504 21 250 0.0 4.8 0.00 0.00 0.00 52 1018.6
20260906182004 22 89 0.0 4.8 0.00 0.00 0.00 50 1018.7
20260906181508 22 3 0.0 4.8 0.00 0.00 0.00 50 1018.7
20260906181003 21 55 0.0 4.8 0.00 0.00 0.00 55 1018.8
20260906180504 21 330 0.0 9.7 0.00 0.00 0.00 54 1018.7
20260906180003 21 26 0.0 9.7 0.00 0.00 0.00 51 1018.8
20260906175503 22 58 1.6 6.4 0.00 0.00 0.00 55 1018.7
20260906175002 22 41 0.0 6.4 0.00 0.00 0.00 56 1018.8
20260906174502 21 294 0.0 3.2 0.00 0.00 0.00 58 1018.7
20260906174003 21 70 0.0 8.0 0.00 0.00 0.00 58 1018.8
20260906173502 21 78 0.0 11.3 0.00 0.00 0.00 58 1018.8
20260906173004 21 127 0.0 8.0 0.00 0.00 0.00 57 1018.8
20260906172501 21 44 1.6 9.7 0.00 0.00 0.00 59 1018.8
20260906172001 21 358 0.0 9.7 0.00 0.00 0.00 57 1018.8
20260906171505 21 13 0.0 6.4 0.00 0.00 0.00 57 1018.8
20260906171001 22 48 0.0 12.9 0.00 0.00 0.00 58 1018.7
20260906170501 21 339 1.6 12.9 0.00 0.00 0.00 56 1018.8
20260906165600 21 96 1.6 6.4 0.00 0.00 0.00 56 1018.9
20260906165059 21 72 0.0 0.0 0.00 0.00 0.00 59 1018.8
20260906164602 21 72 0.0 3.2 0.00 0.00 0.00 59 1018.7
20260906164100 21 43 0.0 9.7 0.00 0.00 0.00 58 1018.8
20260906163558 21 42 0.0 9.7 0.00 0.00 0.00 56 1018.7
20260906163106 22 255 0.0 8.0 0.00 0.00 0.00 59 1018.7
20260906162557 22 68 0.0 8.0 0.00 0.00 0.00 60 1018.6
20260906162056 21 53 0.0 3.2 0.00 0.00 0.00 58 1018.7
20260906161601 21 48 0.0 9.7 0.00 0.00 0.00 60 1018.7
20260906161056 21 87 3.2 8.0 0.00 0.00 0.00 57 1018.7
20260906160558 21 99 0.0 8.0 0.00 0.00 0.00 60 1018.6
20260906160054 21 4 0.0 12.9 0.00 0.00 0.00 63 1018.7
20260906155556 21 77 0.0 6.4 0.00 0.00 0.00 65 1018.6
20260906155054 20 22 0.0 9.7 0.00 0.00 0.00 67 1018.6
20260906154551 20 91 1.6 9.7 0.00 0.00 0.00 64 1018.7
20260906154051 20 3 3.2 9.7 0.00 0.00 0.00 63 1018.6
20260906153550 20 75 0.0 9.7 0.00 0.00 0.00 66 1018.6
20260906153050 20 281 0.0 11.3 0.00 0.00 0.00 66 1018.7
20260906152550 20 79 1.6 11.3 0.00 0.00 0.00 65 1018.6
20260906152049 20 32 0.0 6.4 0.00 0.00 0.00 65 1018.5
20260906151549 20 50 0.0 11.3 0.00 0.00 0.00 66 1018.5
20260906151048 20 44 1.6 11.3 0.00 0.00 0.00 65 1018.6
20260906150549 20 43 0.0 6.4 0.00 0.00 0.00 69 1018.6
20260906150053 20 67 1.6 6.4 0.00 0.00 0.00 69 1018.5
20260906145545 19 73 0.0 9.7 0.00 0.00 0.00 71 1018.5
20260906145045 18 149 0.0 9.7 0.00 0.00 0.00 71 1018.5
20260906144551 19 83 1.6 6.4 0.00 0.00 0.00 71 1018.5
20260906144043 18 293 0.0 4.8 0.00 0.00 0.00 73 1018.5
20260906143546 18 75 0.0 4.8 0.00 0.00 0.00 73 1018.5
20260906143043 18 84 0.0 4.8 0.00 0.00 0.00 73 1018.6
20260906142541 18 68 0.0 8.0 0.00 0.00 0.00 73 1018.6
20260906142044 18 95 1.6 8.0 0.00 0.00 0.00 74 1018.6
20260906141542 18 2 0.0 6.4 0.00 0.00 0.00 75 1018.5
20260906141038 18 18 0.0 8.0 0.00 0.00 0.00 76 1018.5
20260906140542 17 83 0.0 8.0 0.00 0.00 0.00 76 1018.4
20260906140041 17 77 0.0 9.7 0.00 0.00 0.00 77 1018.4
20260906135536 17 95 1.6 9.7 0.00 0.00 0.00 79 1018.3
20260906135034 17 81 1.6 9.7 0.00 0.00 0.00 79 1018.3
20260906134536 17 126 0.0 8.0 0.00 0.00 0.00 79 1018.2
20260906134032 17 18 3.2 8.0 0.00 0.00 0.00 79 1018.2
20260906133530 16 87 1.6 8.0 0.00 0.00 0.00 80 1018.1
20260906133030 16 68 0.0 9.7 0.00 0.00 0.00 80 1018.2
20260906132531 16 86 0.0 6.4 0.00 0.00 0.00 80 1018.1
20260906132030 16 82 0.0 8.0 0.00 0.00 0.00 80 1018.2
20260906131530 16 62 0.0 8.0 0.00 0.00 0.00 81 1018.2
20260906131030 16 42 3.2 9.7 0.00 0.00 0.00 81 1018.1
20260906130529 16 101 3.2 9.7 0.00 0.00 0.00 81 1018.0
20260906130030 16 340 1.6 8.0 0.00 0.00 0.00 81 1018.1
20260906125528 16 76 0.0 8.0 0.00 0.00 0.00 82 1018.0
20260906125028 16 79 1.6 11.3 0.00 0.00 0.00 81 1017.9
20260906124526 16 58 0.0 11.3 0.00 0.00 0.00 82 1017.9
20260906124026 16 72 1.6 9.7 0.00 0.00 0.00 82 1017.9
20260906123526 16 296 0.0 1.6 0.00 0.00 0.00 82 1017.9
20260906123033 16 315 0.0 3.2 0.00 0.00 0.00 82 1017.9
20260906122527 16 316 0.0 3.2 0.00 0.00 0.00 81 1017.8
20260906122025 16 326 0.0 1.6 0.00 0.00 0.00 82 1017.9
20260906121537 16 326 0.0 0.0 0.00 0.00 0.00 82 1017.8
20260906121023 16 326 0.0 0.0 0.00 0.00 0.00 82 1017.8
20260906120522 16 326 0.0 0.0 0.00 0.00 0.00 82 1017.7
20260906120021 16 326 0.0 0.0 0.00 0.00 0.00 82 1017.6
20260906115522 15 326 0.0 0.0 0.00 0.00 0.00 82 1017.6
20260906115021 15 326 0.0 0.0 0.00 0.00 0.00 82 1017.7
20260906114528 15 326 0.0 0.0 0.00 0.00 0.00 82 1017.6
20260906114019 15 326 0.0 0.0 0.00 0.00 0.00 82 1017.5
20260906113519 15 326 0.0 0.0 0.00 0.00 0.00 82 1017.3
20260906113038 15 326 0.0 0.0 0.00 0.00 0.00 82 1017.2
20260906112518 15 326 0.0 0.0 0.00 0.00 0.00 82 1017.2
20260906112018 15 326 0.0 0.0 0.00 0.00 0.00 82 1017.2
20260906111522 15 326 0.0 0.0 0.00 0.00 0.00 82 1017.2
20260906111017 15 326 0.0 0.0 0.00 0.00 0.00 82 1017.2
20260906110517 15 326 0.0 0.0 0.00 0.00 0.00 82 1017.1
20260906110019 15 326 0.0 1.6 0.00 0.00 0.00 82 1017.0
20260906105516 15 326 0.0 0.0 0.00 0.00 0.00 82 1017.0
20260906105019 15 326 0.0 1.6 0.00 0.00 0.00 82 1016.9
20260906104525 15 326 0.0 1.6 0.00 0.00 0.00 82 1016.8
20260906104015 14 326 0.0 1.6 0.00 0.00 0.00 82 1017.0
20260906103514 14 326 0.0 0.0 0.00 0.00 0.00 82 1017.0
20260906103015 14 326 0.0 0.0 0.00 0.00 0.00 82 1016.8
20260906102513 14 326 0.0 0.0 0.00 0.00 0.00 82 1016.8
20260906102012 14 326 0.0 0.0 0.00 0.00 0.00 82 1016.7
20260906101512 14 326 0.0 0.0 0.00 0.00 0.00 82 1016.6
20260906101011 14 326 0.0 0.0 0.00 0.00 0.00 82 1016.6
20260906100511 14 326 0.0 0.0 0.00 0.00 0.00 82 1016.6
20260906100016 14 326 0.0 0.0 0.00 0.00 0.00 82 1016.5
20260906095512 14 326 0.0 0.0 0.00 0.00 0.00 81 1016.5
20260906095009 14 326 0.0 0.0 0.00 0.00 0.00 82 1016.4
20260906094509 14 326 0.0 0.0 0.00 0.00 0.00 81 1016.4
20260906094008 14 326 0.0 0.0 0.00 0.00 0.00 81 1016.4
20260906093508 14 326 0.0 0.0 0.00 0.00 0.00 81 1016.4
20260906093009 14 326 0.0 1.6 0.00 0.00 0.00 81 1016.4
20260906092507 15 326 0.0 1.6 0.00 0.00 0.00 82 1016.3
20260906092011 15 53 0.0 0.0 0.00 0.00 0.00 82 1016.4
20260906091515 15 53 0.0 0.0 0.00 0.00 0.00 81 1016.3
20260906091005 15 53 0.0 0.0 0.00 0.00 0.00 82 1016.1
20260906090504 15 53 0.0 0.0 0.00 0.00 0.00 82 1016.1
20260906090006 14 53 0.0 0.0 0.00 0.00 0.00 82 1016.0
20260906085505 14 53 0.0 0.0 0.00 0.00 0.00 81 1016.0
20260906085003 14 53 0.0 0.0 0.00 0.00 0.00 81 1015.8
20260906084502 14 53 0.0 0.0 0.00 0.00 0.00 81 1015.7
20260906084005 15 53 0.0 0.0 0.00 0.00 0.00 81 1015.6
20260906083502 15 53 0.0 0.0 0.00 0.00 0.00 81 1015.7
20260906083100 15 53 0.0 0.0 0.00 0.00 0.00 81 1015.8
20260906082559 15 53 0.0 0.0 0.00 0.00 0.00 81 1015.6
20260906082101 15 53 0.0 0.0 0.00 0.00 0.00 81 1015.7
20260906081611 15 53 0.0 0.0 0.00 0.00 0.00 81 1015.6
20260906081057 15 53 0.0 0.0 0.00 0.00 0.00 81 1015.7
20260906080557 15 53 0.0 0.0 0.00 0.00 0.00 81 1015.6
20260906080056 15 53 0.0 0.0 0.00 0.00 0.00 81 1015.6
20260906075556 15 53 0.0 0.0 0.00 0.00 0.00 81 1015.6
20260906075057 15 53 0.0 0.0 0.00 0.00 0.00 81 1015.6
20260906074611 15 53 0.0 0.0 0.00 0.00 0.00 81 1015.6
20260906074056 15 53 0.0 0.0 0.00 0.00 0.00 81 1015.5
20260906073557 15 53 0.0 0.0 0.00 0.00 0.00 81 1015.5
20260906073059 15 53 0.0 0.0 0.00 0.00 0.00 81 1015.4
20260906072555 15 53 0.0 0.0 0.00 0.00 0.00 81 1015.5
20260906072059 15 53 0.0 0.0 0.00 0.00 0.00 81 1015.5
20260906071555 15 53 0.0 0.0 0.00 0.00 0.00 81 1015.5
20260906071053 15 53 0.0 0.0 0.00 0.00 0.00 81 1015.5
20260906070553 15 53 0.0 0.0 0.00 0.00 0.00 81 1015.5
20260906070052 15 53 0.0 0.0 0.00 0.00 0.00 81 1015.6
20260906065552 15 53 0.0 0.0 0.00 0.00 0.00 81 1015.6
20260906065053 16 53 0.0 0.0 0.00 0.00 0.00 81 1015.5
20260906064552 16 53 0.0 0.0 0.00 0.00 0.00 81 1015.6
20260906064052 16 53 0.0 0.0 0.00 0.00 0.00 81 1015.5
20260906063551 16 53 0.0 0.0 0.00 0.00 0.00 81 1015.5
20260906063052 16 53 0.0 0.0 0.00 0.00 0.00 81 1015.8
20260906062551 16 53 0.0 0.0 0.00 0.00 0.00 81 1015.6
20260906062055 16 53 0.0 0.0 0.00 0.00 0.00 81 1015.7
20260906061556 16 53 0.0 0.0 0.00 0.00 0.00 81 1015.6
20260906061050 16 53 0.0 0.0 0.00 0.00 0.00 81 1015.6
20260906060651 16 53 0.0 0.0 0.00 0.00 0.00 81 1015.7
20260906060049 16 53 0.0 0.0 0.00 0.00 0.00 81 1015.6
20260906055549 16 53 0.0 0.0 0.00 0.00 0.00 81 1015.7
20260906055050 16 53 0.0 0.0 0.00 0.00 0.00 81 1015.8
20260906054549 16 53 0.0 0.0 0.00 0.00 0.00 81 1015.8
20260906054049 16 53 0.0 0.0 0.00 0.00 0.00 81 1015.7
20260906053549 16 53 0.0 0.0 0.00 0.00 0.00 81 1015.8
20260906053049 16 53 0.0 0.0 0.00 0.00 0.00 81 1015.8
20260906052549 16 53 0.0 0.0 0.00 0.00 0.00 81 1015.8
20260906052049 16 53 0.0 0.0 0.00 0.00 0.00 81 1015.8
20260906051559 16 53 0.0 0.0 0.00 0.00 0.00 81 1015.9
20260906051048 16 53 0.0 0.0 0.00 0.00 0.00 81 1015.9
20260906050551 16 53 0.0 0.0 0.00 0.00 0.00 81 1015.9
20260906050052 16 53 0.0 0.0 0.00 0.00 0.00 81 1015.8
20260906045550 16 53 0.0 3.2 0.00 0.00 0.00 81 1015.8
20260906045045 16 53 0.0 4.8 0.00 0.00 0.00 81 1015.8
20260906044545 16 41 0.0 3.2 0.00 0.00 0.00 81 1015.7
20260906044045 16 35 0.0 0.0 0.00 0.00 0.00 81 1015.5
20260906043544 16 35 0.0 0.0 0.00 0.00 0.00 81 1015.6
20260906043043 16 35 0.0 0.0 0.00 0.00 0.00 81 1015.7
20260906042546 16 36 0.0 0.0 0.00 0.00 0.00 81 1015.8
20260906042042 16 35 0.0 0.0 0.00 0.00 0.00 81 1015.7
20260906041544 16 35 0.0 0.0 0.00 0.00 0.00 81 1015.7
20260906041045 16 35 0.0 0.0 0.00 0.00 0.00 81 1015.6
20260906040541 16 35 0.0 0.0 0.00 0.00 0.00 81 1015.6
20260906040045 16 35 0.0 0.0 0.00 0.00 0.00 81 1015.6
20260906035541 16 35 0.0 0.0 0.00 0.00 0.00 81 1015.6
20260906035043 16 35 0.0 0.0 0.00 0.00 0.00 81 1015.6
20260906034539 15 35 0.0 0.0 0.00 0.00 0.00 80 1015.5
20260906034038 15 35 0.0 0.0 0.00 0.00 0.00 80 1015.5
20260906033538 16 35 0.0 0.0 0.00 0.00 0.00 80 1015.5
20260906033045 16 35 0.0 0.0 0.00 0.00 0.00 80 1015.4
20260906032539 16 35 0.0 0.0 0.00 0.00 0.00 80 1015.4
20260906032041 16 35 0.0 0.0 0.00 0.00 0.00 80 1015.5
20260906031551 16 35 0.0 0.0 0.00 0.00 0.00 80 1015.5
20260906031037 16 35 0.0 0.0 0.00 0.00 0.00 80 1015.5
20260906030537 16 35 0.0 0.0 0.00 0.00 0.00 80 1015.4
20260906030039 16 35 0.0 0.0 0.00 0.00 0.00 80 1015.3
20260906025536 15 35 0.0 0.0 0.00 0.00 0.00 80 1015.4
20260906025037 15 35 0.0 0.0 0.00 0.00 0.00 80 1015.4
20260906024537 15 35 0.0 0.0 0.00 0.00 0.00 80 1015.3
20260906024036 15 35 0.0 0.0 0.00 0.00 0.00 79 1015.3
20260906023536 15 35 0.0 0.0 0.00 0.00 0.00 79 1015.3
20260906023037 15 35 0.0 0.0 0.00 0.00 0.00 79 1015.3
20260906022535 15 35 0.0 0.0 0.00 0.00 0.00 79 1015.1
20260906022035 15 35 0.0 0.0 0.00 0.00 0.00 79 1015.2
20260906021535 15 35 0.0 0.0 0.00 0.00 0.00 79 1015.2
20260906021034 15 35 0.0 0.0 0.00 0.00 0.00 78 1015.2
20260906020534 15 35 0.0 0.0 0.00 0.00 0.00 78 1015.1
20260906020034 15 35 0.0 0.0 0.00 0.00 0.00 78 1015.1
20260906015533 15 35 0.0 0.0 0.00 0.00 0.00 76 1015.0
20260906015033 15 35 0.0 0.0 0.00 0.00 0.00 76 1015.1
20260906014535 16 35 0.0 0.0 0.00 0.00 0.00 76 1015.0
20260906014032 16 35 0.0 0.0 0.00 0.00 0.00 75 1014.8
20260906013532 16 35 0.0 0.0 0.00 0.00 0.00 74 1014.9
20260906013032 16 35 0.0 0.0 0.00 0.00 0.00 74 1014.8
20260906012535 16 35 0.0 0.0 0.00 0.00 0.00 73 1014.9
20260906012031 16 35 0.0 0.0 0.00 0.00 0.00 73 1014.8
20260906011536 16 36 0.0 0.0 0.00 0.00 0.00 73 1014.8
20260906011031 16 35 0.0 0.0 0.00 0.00 0.00 72 1014.8
20260906010531 16 35 0.0 0.0 0.00 0.00 0.00 72 1014.9
20260906010032 16 35 0.0 0.0 0.00 0.00 0.00 71 1014.9
20260906005530 16 35 0.0 0.0 0.00 0.00 0.00 71 1014.8
20260906005030 16 36 0.0 0.0 0.00 0.00 0.00 71 1014.8
20260906004530 16 35 0.0 0.0 0.00 0.00 0.00 71 1014.7
20260906004029 16 35 0.0 0.0 0.00 0.00 0.00 70 1014.8
20260906003529 16 35 0.0 0.0 0.00 0.00 0.00 70 1014.6
20260906003029 16 35 0.0 0.0 0.00 0.00 0.00 70 1014.6
20260906002529 16 35 0.0 0.0 0.00 0.00 0.00 70 1014.6
20260906002029 16 35 0.0 0.0 0.00 0.00 0.00 69 1014.8
20260906001528 17 36 0.0 0.0 0.00 0.00 0.00 69 1014.7
20260906001027 17 35 0.0 0.0 0.00 0.00 0.00 69 1014.7
20260906000529 17 35 0.0 0.0 0.00 0.00 0.00 69 1014.6
20260906000028 17 35 0.0 0.0 0.00 0.00 0.00 68 1014.6
20260905235527 17 35 0.0 0.0 0.00 0.00 0.00 68 1014.7
20260905235028 18 35 0.0 0.0 0.00 0.00 0.00 68 1014.5
20260905234528 18 35 0.0 0.0 0.00 0.00 0.00 66 1014.6
20260905234027 18 35 0.0 0.0 0.00 0.00 0.00 65 1014.7
20260905233527 19 35 0.0 0.0 0.00 0.00 0.00 64 1014.6
20260905233026 20 35 0.0 0.0 0.00 0.00 0.00 62 1014.6
20260905232526 21 35 0.0 0.0 0.00 0.00 0.00 60 1014.6
20260905232026 21 35 0.0 0.0 0.00 0.00 0.00 58 1014.5
20260905231526 22 35 0.0 0.0 0.00 0.00 0.00 58 1014.5
20260905231025 22 35 0.0 0.0 0.00 0.00 0.00 58 1014.6
20260905230525 22 35 0.0 0.0 0.00 0.00 0.00 57 1014.6
20260905230028 22 35 0.0 0.0 0.00 0.00 0.00 58 1014.5
20260905225524 22 35 0.0 0.0 0.00 0.00 0.00 58 1014.6
20260905225025 22 35 0.0 0.0 0.00 0.00 0.00 58 1014.6
20260905224533 22 35 0.0 4.8 0.00 0.00 0.00 58 1014.6
20260905224025 22 37 0.0 4.8 0.00 0.00 0.00 57 1014.6
20260905223525 22 347 0.0 0.0 0.00 0.00 0.00 57 1014.6
20260905223024 22 347 0.0 0.0 0.00 0.00 0.00 56 1014.6
20260905222523 22 347 0.0 0.0 0.00 0.00 0.00 55 1014.5
20260905222022 23 347 0.0 0.0 0.00 0.00 0.00 55 1014.5
20260905221522 23 347 0.0 0.0 0.00 0.00 0.00 53 1014.5
20260905221028 23 49 0.0 1.6 0.00 0.00 0.00 56 1014.3
20260905220522 23 49 0.0 1.6 0.00 0.00 0.00 53 1014.3
20260905220022 23 60 0.0 0.0 0.00 0.00 0.00 53 1014.2
20260905215522 23 60 0.0 0.0 0.00 0.00 0.00 52 1014.1
20260905215021 23 62 0.0 1.6 0.00 0.00 0.00 52 1014.0
20260905214521 24 60 0.0 1.6 0.00 0.00 0.00 52 1014.1
20260905214022 24 46 0.0 1.6 0.00 0.00 0.00 53 1014.0
20260905213522 24 14 0.0 1.6 0.00 0.00 0.00 52 1014.0
20260905213121 24 14 0.0 3.2 0.00 0.00 0.00 51 1014.0